JF7ELG-13 Weather Reports


Display with metric or nautical units.
time (UTC)temp
F
wind
direction
speed
MPH
gust
MPH
rain 1hr
in
rain 24hr
in
rain mn
in
humidity
%
barometer
mb
20190120040701 54 270 0.0 0.0 0.00 0.00 0.00 46 993.0
20190120033659 59 260 0.0 0.0 0.00 0.00 0.00 44 994.0
20190120030701 60 102 2.0 3.0 0.00 0.00 0.00 42 995.0
20190120023700 61 135 2.0 3.0 0.00 0.00 0.00 42 996.0
20190120020700 68 263 5.0 6.0 0.00 0.00 0.00 39 997.0
20190120013700 59 268 1.0 1.0 0.00 0.00 0.00 45 998.0
20190120010659 60 306 0.0 0.0 0.00 0.00 0.00 43 999.0
20190120003658 59 10 0.0 0.0 0.00 0.00 0.00 46 999.0
20190120000606 47 292 0.0 0.0 0.00 0.00 0.00 58 999.0
20190119233607 43 287 0.0 0.0 0.00 0.00 0.00 57 1000.0
20190119230607 43 43 0.0 0.0 0.00 0.00 0.00 57 1000.0
20190119223606 43 275 1.0 5.0 0.00 0.00 0.00 56 1001.0
20190119220606 41 237 1.0 2.0 0.00 0.00 0.00 56 1001.0
20190119213607 38 277 1.0 3.0 0.00 0.00 0.00 60 1001.0
20190119210606 33 272 0.0 0.0 0.00 0.00 0.00 75 1002.0
20190119203606 32 270 0.0 0.0 0.00 0.00 0.00 79 1002.0
20190119160614 25 90 0.0 0.0 0.00 0.00 0.00 68 1007.0
20190119153613 26 68 0.0 0.0 0.00 0.00 0.00 67 1008.0
20190119150614 26 292 0.0 0.0 0.00 0.00 0.00 65 1009.0
20190119143614 25 292 0.0 0.0 0.00 0.00 0.00 63 1009.0
20190119140612 26 292 0.0 0.0 0.00 0.00 0.00 62 1009.0
20190119133613 26 292 0.0 0.0 0.00 0.00 0.00 61 1009.0
20190119130612 28 338 0.0 0.0 0.00 0.00 0.00 60 1009.0
20190119123612 28 68 0.0 0.0 0.00 0.00 0.00 55 1009.0
20190119120616 28 90 0.0 0.0 0.00 0.00 0.00 55 1010.0
20190119113614 30 90 0.0 0.0 0.00 0.00 0.00 53 1010.0
20190119110616 29 90 0.0 0.0 0.00 0.00 0.00 51 1010.0
20190119103615 31 90 0.0 0.0 0.00 0.00 0.00 47 1010.0
20190119100613 33 99 0.0 0.0 0.00 0.00 0.00 47 1010.0
20190119093614 36 27 0.0 0.0 0.00 0.00 0.00 44 1010.0
20190119090614 38 270 0.0 0.0 0.00 0.00 0.00 42 1010.0
20190119083614 41 270 1.0 0.0 0.00 0.00 0.00 40 1010.0
20190119080533 43 252 1.0 2.0 0.00 0.00 0.00 38 1010.0
20190119073531 44 226 0.0 2.0 0.00 0.00 0.00 37 1010.0
20190119070532 50 217 1.0 3.0 0.00 0.00 0.00 30 1009.0
20190119063533 52 14 0.0 1.0 0.00 0.00 0.00 29 1009.0
20190119060533 51 252 5.0 6.0 0.00 0.00 0.00 27 1009.0
20190119053531 48 328 2.0 5.0 0.00 0.00 0.00 13 1009.0
20190119050531 52 90 1.0 2.0 0.00 0.00 0.00 8 1009.0
20190119043532 57 98 0.0 0.0 0.00 0.00 0.00 6 1009.0